Estación municipal de Les Masies de Roda (Osona, Ter)

Consulta los datos en tiempo real de la estación municipal de Les Masies de Roda





Hora UTC 01:40
Temperatura 20.9 ºC
Suelo 15 cm 19.7 ºC
Humedad 83.1 %
Presión 1021.1 hPa
Pluja 0.0 mm
Velocidad viento 1.3 km/h
Dirección viento NE
Radiación solar 15.1 W/m²

Datos diarios 2026-09-01



Hora UTC (invierno +1h; verano +2h)
Temperatura (ºC) Humedad (%) Presión (hPa) Velocidad viento (km/h) Precipitación (mm) Radiación solar (W/m²)
Hora UTC Aire Suelo 15 cm Humedad Presión Vel. Dir. Vel. Max Dir. Intent. máx 5 min. Rad. Sol.
00:05 20.0 17.7 88.3 1021.1 2.9 S 2.9 SSE 0.0 15.2
00:10 20.0 17.6 89.1 1021.1 2.2 SSE 3.9 SSE 0.0 8.7
00:15 20.2 17.7 87.6 1021.1 0.9 SSE 3.9 SSE 0.0 13.5
00:20 20.3 17.7 87.3 1021.2 0.4 SE 2.5 SE 0.0 14.7
00:25 20.0 17.7 87.6 1021.1 1.0 WNW 2.8 NW 0.0 10.3
00:30 19.8 17.5 88.8 1021.2 0.2 NNE 2.1 NNE 0.0 14.2
00:35 19.8 17.4 89.8 1020.9 0.3 NE 1.8 NE 0.0 11.7
00:40 19.8 17.4 89.6 1021.1 0.8 NE 3.5 ENE 0.0 14.8
00:45 19.8 17.4 89.2 1020.9 0.5 NE 2.5 NE 0.0 13.8
00:50 19.7 17.6 89.7 1021.0 0.0 NNE 0.0 NE 0.0 14.3
00:55 19.7 17.8 89.7 1021.0 0.0 NNE 0.0 NE 0.0 13.8
01:00 19.9 18.2 88.9 1021.0 0.0 NNE 0.0 NE 0.0 12.8
01:05 20.0 18.5 88.7 1021.1 0.3 NNE 2.1 NNE 0.0 12.7
01:10 20.0 18.7 89.0 1020.9 0.0 NNE 0.0 NNE 0.0 14.1
01:15 20.1 18.9 88.7 1021.1 0.0 NNE 0.0 NNE 0.0 13.1
01:20 20.2 19.0 88.1 1020.9 2.0 ENE 4.6 ENE 0.0 12.9
01:25 20.5 19.2 84.5 1021.1 3.6 ENE 5.0 ENE 0.0 14.9
01:30 20.8 19.4 82.8 1021.0 3.0 ENE 5.3 ENE 0.0 15.6
01:35 20.9 19.5 82.9 1021.0 1.9 NNE 3.5 NE 0.0 15.5
01:40 20.9 19.7 83.1 1021.1 1.3 NE 2.8 NNE 0.0 15.1
Máxima 20.9 19.7 89.8 1021.2 3.6 ENE 5.3 ENE 0.0 15.6
Mínima 19.7 17.4 82.8 1020.9
Total 0.0